User: anonymous   Login
Location: Unspecified
(0.0000°N, 0.0000°E)
Time: 04:28:20
(UTC+00:00)
Language:

deb Explorer IX - Orbit

View from above orbital plane
View from above orbital plane
View from above satellite
View from above satellite

Ground track
Ground track

The orbit data is extracted from the following two-line orbital elements,

1 00085U 61004C   14325.20163326  .00031841  00000-0  81407-2 0   745
2 00085 038.7679 261.0745 0438681 340.5338 017.9105 14.05034567642321
Epoch (UTC): 21 November 2014 04:50:21
Eccentricity: 0.0438681
inclination: 38.7679°
perigee height: 558 km
apogee height: 1194 km
right ascension of ascending node: 261.0745°
argument of perigee: 340.5338°
revolutions per day: 14.05034567
mean anomaly at epoch: 17.9105°
orbit number at epoch: 64232

The dashed part of the orbit path shows where the satellite is in the earth's shadow,  

DLR